Вернуться в каталог

KUIPER-00158

АктивенСвязьLEO
NORAD 65776·PAYLOAD·🇺🇸 United States

Запущен Sep 25, 2025 с Cape Canaveral Space Force Station

Loading…

Ближайшие Пролёты (ближайшие 24 часа)

TLE

СвежийSource: Space-Track

Эпоха: Sep 14, 2026, 02:22 UTC

1 65776U 25217Q   26257.09878382  .00002267  00000-0  31112-3 0  9993
2 65776  51.8968 290.3804 0000375 338.4613  21.6334 14.81989277 52775

Отслеживайте KUIPER-00158 в реальном времени с AllMySat

Download on the App Store